Home   Weather   Worms   Past weeks

Flag for Germany Past Weather in Worms, Rhineland-Palatinate, Germany — Yesterday and Last 2 Weeks

Now
45 °F

Partly cloudy.


Feels Like: 40 °F
Forecast: 40 / 47 °F
Wind: 8 mph from Southwest

Location: Wiesbaden Airport

Current Time: Feb 28, 2017 at 2:06:57 am

Latest Report: Feb 28, 2017 at 12:58 am


Visibility: N/A

Pressure: 29.42 "Hg

Humidity: 87%

Dew Point: 41 °F

Location of WormsLocation

Past Weather in Worms — Graph

°F

Worms Temperature Yesterday

Maximum temperature yesterday: 57 °F (at 3:58 pm)
Minimum temperature yesterday: 45 °F (at 11:31 pm)
Average temperature yesterday: 50 °F

High & Low Weather Summary for the Past Weeks

 TemperatureHumidityPressure
High57 °F (Feb 26, 2:58 pm)100% (Feb 16, 7:22 am)30.62 "Hg (Feb 16, 7:22 am)
Low27 °F (Feb 15, 3:58 am)39% (Feb 26, 2:58 pm)29.36 "Hg (Feb 27, 8:37 pm)
Average44 °F79%30.09 "Hg
* Reported Feb 13 12:58 am — Feb 28 12:58 am, Worms, Weather by CustomWeather, © 2017

Note: Actual official high and low records may vary slightly from our data, if they occured in-between our weather recording intervals... More about our weather records

Advertising

Worms Weather History for the Previous 24 Hours

Scroll right to see more
 ConditionsComfort  
Time TempWeatherWind HumidityBarometerVisibility
12:58 am
Tue, Feb 28
45 °FPartly cloudy.8 mph87%29.42 "HgN/A
12:23 am45 °FMostly cloudy.18 mph81%29.41 "HgN/A
12:05 am45 °FOvercast.17 mph93%29.41 "HgN/A
11:58 pm
Mon, Feb 27
45 °FPartly cloudy.9 mph93%29.43 "HgN/A
11:31 pm45 °FLight rain. Mostly cloudy.7 mph93%29.42 "HgN/A
11:18 pm46 °FMostly cloudy.10 mph87%29.41 "HgN/A
10:59 pm46 °FLight rain. Mostly cloudy.7 mph87%29.40 "HgN/A
10:10 pm46 °FLight rain. Passing clouds.9 mph87%29.42 "HgN/A
9:58 pm46 °FLight rain. Passing clouds.9 mph87%29.42 "HgN/A
8:58 pm46 °FRain. Fog.18 mph87%29.44 "Hg6 mi
8:44 pm52 °FHeavy rain. Mostly cloudy.32 mph67%29.41 "Hg1 mi
8:37 pm54 °FLight rain. Partly cloudy.21 mph54%29.36 "HgN/A
7:58 pm54 °FMostly cloudy.13 mph54%29.39 "HgN/A
6:58 pm54 °FPartly cloudy.13 mph54%29.43 "HgN/A
5:58 pm55 °FOvercast.16 mph51%29.48 "HgN/A
4:58 pm55 °FOvercast.17 mph51%29.52 "HgN/A
3:58 pm57 °FOvercast.17 mph48%29.54 "HgN/A
2:58 pm55 °FOvercast.16 mph51%29.57 "HgN/A
1:58 pm55 °FOvercast.21 mph51%29.59 "HgN/A
12:58 pm57 °FOvercast.18 mph49%29.64 "HgN/A
12:24 pm55 °FOvercast.21 mph51%29.65 "HgN/A
11:58 am54 °FOvercast.17 mph57%29.68 "HgN/A
10:58 am50 °FOvercast.13 mph62%29.72 "HgN/A
9:58 am48 °FOvercast.12 mph66%29.75 "HgN/A
8:58 am46 °FOvercast.13 mph71%29.77 "HgN/A
7:58 am46 °FOvercast.10 mph71%29.79 "HgN/A
6:58 am48 °FOvercast.6 mph71%29.80 "HgN/A
5:58 am49 °FOvercast.9 mph74%29.81 "HgN/A
4:58 am48 °FOvercast.7 mph76%29.83 "HgN/A
3:58 am48 °FOvercast.8 mph76%29.85 "HgN/A
2:58 am49 °FOvercast.7 mph77%29.87 "HgN/A
Weather by CustomWeather, © 2017

See weather overviewHow to use our weather pages